Weather Roundup
Issued by NWS

Home | Current Version | Previous Version | Graphics & Text | Print | Product List | Glossary Off
Versions: 1 2 3 4 5 6 7 8 9 10 11 12 13 14 15 16 17 18 19 20 21 22 23 24 25 26 27 28 29 30 31 32 33 34 35 36 37 38 39 40 41 42 43 44 45 46 47 48 49 50

543
NZUS93 KARX 271159
HRRWXR

CURRENT HOURLY OBSERVATIONS ACROSS
MUCH OF THE UPPER MISSISSIPPI VALLEY
NATIONAL WEATHER SERVICE LA CROSSE WI
700 AM CDT SAT MAY 27 2017


...SOUTHEAST MINNESOTA...


CITY           SKY/WX    TMP DP  RH WIND       PRES   REMARKS
ROCHESTER      SUNNY     56  50  80 W5        29.90R
ROCHESTER/MAYO FAIR      57  49  75 CALM      29.89R
WINONA         MOSUNNY   55  54  94 CALM      29.87F
AUSTIN         SUNNY     52  50  93 CALM      29.89S
ALBERT LEA     SUNNY     55  54  94 CALM      29.89S
DODGE CENTER   SUNNY     55  48  76 W6        29.89R
PRESTON          N/A     54  53  96 CALM      29.89S FOG
OWATONNA       SUNNY     52  48  87 CALM      29.89S
FARIBAULT      SUNNY     55  52  88 CALM      29.89S
$$

...ELSEWHERE IN MINNESOTA...


CITY           SKY/WX    TMP DP  RH WIND       PRES   REMARKS
MINNEAPOLIS    MOSUNNY   57  48  72 SW3       29.89R
INTNL FALLS    CLOUDY    48  43  82 SW5       29.78S
DULUTH         MOSUNNY   55  46  71 W9        29.84R
RED WING       SUNNY     55  52  88 CALM      29.87S
REDWOOD FALLS  CLOUDY    55  49  80 CALM      29.89R
MANKATO        SUNNY     56  50  80 CALM      29.89F
WORTHINGTON    CLOUDY    53  48  83 CALM      29.92R
FAIRMONT       SUNNY     54  48  80 N6        29.90S
$$

...SOUTHWEST WISCONSIN...


CITY           SKY/WX    TMP DP  RH WIND       PRES   REMARKS
LA CROSSE      SUNNY     61  59  93 S7        29.87S
PRAIRIE DU CHI CLOUDY    55  54  97 CALM      29.89S FOG
BOSCOBEL       FOG       54  53  97 CALM      29.90F VSB 1/2
LONE ROCK      NOT AVBL
PLATTEVILLE      N/A     53  53 100 SE5       29.91F
FORT MC COY    PTSUNNY   49  48  97 CALM      29.88F
MAUSTON-NEW LI SUNNY     55  55  99 CALM      29.88S FOG
VIROQUA        CLOUDY    58  58 100 N7        29.89F
WIS DELLS      SUNNY     51  50  96 CALM      29.90F FOG
$$

...ELSEWHERE IN WISCONSIN...


CITY           SKY/WX    TMP DP  RH WIND       PRES   REMARKS
MILWAUKEE      PTSUNNY   59  55  87 CALM      29.92R FOG
MADISON        FOG       50  50 100 CALM      29.91S VSB 1/4
GREEN BAY      SUNNY     55  55 100 CALM      29.90R FOG
EAU CLAIRE     NOT AVBL
BLACK RVR FLS  FOG       51  51 100 CALM      29.86F VSB<1/4
MEDFORD        CLOUDY    55  54  98 SW3       29.87S FOG
WAUSAU         SUNNY     56  54  93 CALM      29.87S FOG
WIS RAPIDS     SUNNY     56  55  97 S3        29.89F FOG
MARSHFIELD     CLOUDY    55  53  93 SW5       29.87S FOG
RICE LAKE      SUNNY     51  51  98 CALM      29.88R
$$

...NORTHEAST IOWA...


CITY           SKY/WX    TMP DP  RH WIND       PRES   REMARKS
WATERLOO       FOG       57  56  96 S5        29.89R VSB<1/4
DUBUQUE        SUNNY     56  54  93 CALM      29.90F
DECORAH        FOG       59  59 100 CALM      29.89R VSB<1/4
MASON CITY     SUNNY     55  50  83 NW5       29.90S
CHARLES CITY   FOG       54  54 100 SE5       29.89S VSB<1/4
OELWEIN        FOG       57  57 100 S8        29.90S VSB<1/4
$$

...ELSEWHERE IN IOWA...


CITY           SKY/WX    TMP DP  RH WIND       PRES   REMARKS
DES MOINES     FOG       61  60  97 CALM      29.89R VSB 1/4
IOWA CITY      FOG       55  54  96 NE3       29.92S VSB 3/4
FORT DODGE     CLOUDY    52  48  87 CALM      29.90R
MARSHALLTOWN   FOG       53  53 100 SE3       29.89R VSB<1/4
CEDAR RAPIDS   FOG       55  55 100 CALM      29.90S VSB 1/16
$$

...NORTHERN ILLINOIS...


CITY           SKY/WX    TMP DP  RH WIND       PRES   REMARKS
CHICAGO-OHARE  MOSUNNY   55  51  86 N5        29.91R
CHICAGO-MIDWAY PTSUNNY   58  52  80 N6        29.91R
MOLINE         FOG       58  56  93 E3        29.91R VSB 1/4
ROCKFORD       SUNNY     55  53  93 NE3       29.94R FOG
PEORIA         FOG       59  59 100 NE6       29.91R VSB 3/4
$$

NOTE: "FAIR" INDICATES FEW OR NO CLOUDS BELOW 12,000 FEET WITH NO
SIGNIFICANT WEATHER AND/OR OBSTRUCTIONS TO VISIBILITY. WIND
SPEEDS ARE IN MILES-PER-HOUR.




USA.gov is the U.S. government's official web portal to all federal, state and local government web resources and services.